Palmdale, CA

12:50 AM PDT on July 28, 2017 (GMT -0700)
Palmdale Af Plant 42

Weather History for KPMD - December, 2013

Change the Weather History Date:

Saturday, December 21, 2013

  Actual Average Record
Temperature  
Mean Temperature 48 °F 44 °F  
Max Temperature 64 °F 57 °F 74 °F (1942)
Min Temperature 31 °F 30 °F 9 °F (1968)
Degree Days  
Heating Degree Days 17 21  
Month to date heating degree days 445 427  
Since 1 July heating degree days 958 954  
Cooling Degree Days 0 0  
Month to date cooling degree days 0 0  
Year to date cooling degree days 2126 1815  
Moisture  
Dew Point 29 °F    
Average Humidity 52    
Maximum Humidity 76    
Minimum Humidity 28    
Precipitation  
Precipitation 0.00 in 0.04 in 0.79 in (1970)
Month to date precipitation T 0.54  
Year to date precipitation 2.93 7.69  
Since 1 July precipitation 2.07  
Snow  
Snow 0.00 in - T in (1970)
Month to date snowfall 0.0  
Since 1 July snowfall 0.0  
Snow Depth 0.00 in    
Sea Level Pressure  
Sea Level Pressure 29.96 in    
Wind  
Wind Speed 4 mph (SW)    
Max Wind Speed 10 mph    
Max Gust Speed -    
Visibility 10 miles    
Events      
T = Trace of Precipitation, MM = Missing Value Source: NWS Daily Summary

Daily Weather History Graph

Daily Weather History Graph

Search for Another Location

Airport or City:

Trip Planner

Search our weather history database for the weather conditions in past years. The results will help you decide how hot, cold, wet, or windy it might be!

Date:

Astronomy

Dec. 21, 2013 Rise Set
Actual Time 6:55 AM PST 4:45 PM PST
Civil Twilight 6:27 AM PST 5:13 PM PST
Nautical Twilight 5:56 AM PST 5:45 PM PST
Astronomical Twilight 5:25 AM PST 6:16 PM PST
Moon 8:57 PM PST (12/21) 9:32 AM PST (12/21)
Length of Visible Light 10h 46m
Length of Day
9h 50m
Waning Gibbous, 83% of the Moon is Illuminated
Dec 21
Waning Gibbous
Dec 25
Last Quarter
Jan 1
New
Jan 7
First Quarter
Jan 15
Full

Hourly Weather History & Observations

Time (PST) Temp. Windchill Dew Point Humidity Pressure Visibility Wind Dir Wind Speed Gust Speed Precip Events Conditions
12:53 AM 34.0 °F 29.8 °F 21.9 °F 61% 29.90 in 10.0 mi SSW 4.6 mph - N/A   Clear
1:53 AM 33.1 °F - 21.9 °F 64% 29.90 in 10.0 mi Calm Calm - N/A   Clear
2:53 AM 35.1 °F - 21.0 °F 57% 29.89 in 10.0 mi Calm Calm - N/A   Clear
3:53 AM 35.1 °F - 19.9 °F 54% 29.87 in 10.0 mi Calm Calm - N/A   Clear
4:53 AM 39.0 °F 35.7 °F 24.1 °F 55% 29.88 in 10.0 mi SW 4.6 mph - N/A   Clear
5:53 AM 35.1 °F 30.1 °F 24.1 °F 64% 29.91 in 10.0 mi North 5.8 mph - N/A   Clear
6:53 AM 37.0 °F - 23.0 °F 57% 29.94 in 10.0 mi Calm Calm - N/A   Clear
7:53 AM 37.9 °F 32.1 °F 25.0 °F 60% 29.97 in 10.0 mi SW 8.1 mph - N/A   Clear
8:53 AM 48.0 °F - 28.9 °F 48% 29.96 in 10.0 mi South 4.6 mph - N/A   Clear
9:53 AM 53.1 °F - 28.9 °F 40% 29.96 in 10.0 mi Calm Calm - N/A   Clear
10:53 AM 57.9 °F - 30.9 °F 36% 29.95 in 10.0 mi Calm Calm - N/A   Clear
11:53 AM 61.0 °F - 30.9 °F 32% 29.92 in 10.0 mi North 3.5 mph - N/A   Clear
12:53 PM 63.0 °F - 30.9 °F 30% 29.90 in 10.0 mi NNE 4.6 mph - N/A   Clear
1:53 PM 64.0 °F - 30.9 °F 29% 29.90 in 10.0 mi Variable 3.5 mph - N/A   Clear
2:53 PM 64.0 °F - 30.9 °F 29% 29.91 in 10.0 mi North 5.8 mph - N/A   Clear
3:53 PM 63.0 °F - 30.9 °F 30% 29.92 in 10.0 mi NW 3.5 mph - N/A   Clear
4:53 PM 55.0 °F - 34.0 °F 45% 29.96 in 10.0 mi WSW 4.6 mph - N/A   Clear
5:53 PM 52.0 °F - 35.1 °F 53% 29.99 in 10.0 mi SW 5.8 mph - N/A   Clear
6:53 PM 48.0 °F - 35.1 °F 61% 30.01 in 10.0 mi SW 3.5 mph - N/A   Clear
7:53 PM 44.1 °F 40.8 °F 34.0 °F 68% 30.04 in 10.0 mi SSW 5.8 mph - N/A   Clear
8:53 PM 43.0 °F 39.5 °F 35.1 °F 74% 30.04 in 10.0 mi South 5.8 mph - N/A   Clear
9:53 PM 41.0 °F 37.1 °F 34.0 °F 76% 30.06 in 10.0 mi SSW 5.8 mph - N/A   Clear
10:53 PM 39.9 °F 35.8 °F 30.9 °F 70% 30.07 in 10.0 mi SSW 5.8 mph - N/A   Clear
11:53 PM 37.0 °F 34.5 °F 32.0 °F 82% 30.08 in 10.0 mi South 3.5 mph - N/A   Clear